Theta_e
295 294 293 293 293 293 292 292 291 291 290 289 289 289 288 288 289 288 287 288 287 287 289 288 288 289 289 289 290 288 287 286 284 287 287 288 288 287 290 292 291 290 290
296 294 293 293 293 292 291 291 291 289 289 289 288 287 286 286 286 287 285 284 284 284 284 285 284 286 287 287 287 287 288 288 285 283 285 285 286 286 288 289 290 289 289
293 293 292 290 286 287 287 289 288 288 287 286 285 285 284 284 283 284 284 284 283 282 282 281 281 282 282 284 284 284 286 288 288 286 284 286 285 285 286 288 288 288 287
292 291 286 289 287 286 287 288 287 286 284 284 284 284 283 284 284 284 284 283 283 282 282 281 281 280 279 281 283 281 283 285 286 285 284 284 284 284 286 284 285 287 285
291 290 288 289 289 288 288 288 288 287 285 284 284 284 285 285 286 287 285 285 285 283 284 284 283 281 280 279 280 280 280 282 282 283 281 281 279 279 280 283 284 286 284
291 290 289 290 288 288 288 289 289 288 287 288 287 287 286 284 281 282 285 286 285 285 284 283 282 281 280 279 279 278 278 277 278 279 279 277 277 277 280 282 283 283 280
292 291 289 289 288 287 288 288 288 288 288 288 288 288 286 283 280 281 282 287 285 285 284 284 281 281 281 282 280 280 278 277 277 278 276 275 275 276 278 280 282 283 282
291 291 289 288 288 287 287 287 288 288 288 288 288 288 286 282 279 280 281 286 286 284 284 283 282 280 279 279 281 280 279 278 277 277 277 276 277 277 277 279 281 283 285
290 289 289 289 287 286 286 287 288 288 288 288 288 287 285 282 279 280 281 285 284 283 282 280 281 279 277 278 280 279 278 278 278 278 278 278 278 277 277 277 276 277 278
290 290 290 289 287 286 287 288 288 288 287 286 286 287 284 282 279 279 282 284 283 283 283 281 277 277 276 276 278 277 275 275 278 278 280 279 279 279 278 277 275 274 274
290 291 289 289 288 287 288 288 287 287 285 286 285 284 284 284 281 279 281 284 284 283 282 281 279 275 275 275 275 274 273 275 278 279 279 279 278 278 278 278 277 275 273
291 290 288 288 287 287 287 287 286 285 283 282 282 282 282 282 281 279 279 279 280 282 281 280 277 274 274 274 274 273 275 277 278 277 277 276 275 275 277 278 278 278 277
291 288 288 288 287 287 287 286 286 285 283 282 282 282 283 282 282 279 278 277 278 281 280 275 274 273 274 276 273 274 276 276 275 275 274 274 275 276 277 277 278 279 279
289 288 288 288 287 287 287 287 286 285 284 284 283 283 283 283 282 281 280 279 276 278 276 277 276 275 275 276 277 276 276 275 274 274 274 275 276 275 275 275 275 275 275
289 288 288 288 287 287 287 287 286 287 287 286 285 285 283 282 284 283 281 281 281 279 278 279 279 278 277 277 277 276 276 274 274 273 273 273 273 272 273 273 274 274 273
288 288 288 287 286 287 286 285 282 285 283 283 284 285 285 283 282 281 279 278 277 276 277 278 278 277 276 276 275 275 275 273 272 272 272 272 271 270 270 272 273 272 271
289 288 288 287 287 286 286 286 283 281 281 281 281 281 282 281 280 279 279 278 276 275 276 278 277 276 275 275 274 273 272 272 271 271 271 270 270 269 269 270 270 270 269
290 286 290 290 290 289 288 287 287 283 281 281 280 280 280 280 279 280 279 278 276 275 277 277 277 276 275 274 273 272 272 271 271 270 270 269 269 268 268 268 268 267 267
289 289 290 289 289 287 287 286 286 284 283 282 281 279 279 279 279 279 279 278 278 278 278 277 277 275 274 274 273 272 271 270 269 268 269 268 268 267 267 267 267 266 266
288 286 286 287 287 286 286 285 284 284 284 283 282 281 280 278 278 278 279 280 279 280 279 277 276 275 274 273 272 272 270 270 270 269 268 268 267 266 266 266 266 265 266
289 286 285 287 286 285 286 285 285 284 284 283 283 284 282 280 280 280 280 281 280 280 278 277 276 275 273 272 271 271 270 269 268 268 267 267 266 265 266 266 265 265 265
289 286 286 287 287 286 286 286 286 284 284 283 284 283 282 282 282 282 282 281 280 279 278 276 275 274 273 271 270 270 269 268 267 267 266 265 265 265 265 264 264 264 264
289 287 287 287 287 286 286 286 285 284 284 284 283 281 281 281 281 282 280 278 276 275 275 274 273 272 272 269 269 268 267 267 267 265 263 263 263 264 263 263 263 263 263
290 289 286 287 287 285 285 285 285 283 283 283 283 282 281 281 281 279 277 276 275 273 271 270 270 269 268 267 269 268 267 266 266 265 263 262 262 262 262 262 262 262 262
289 288 287 285 285 285 285 284 283 283 283 283 282 282 281 280 278 276 275 273 272 271 269 268 268 265 262 261 262 261 259 259 260 258 260 261 261 261 261 261 261 261 261
287 286 286 286 284 284 284 283 282 282 281 282 281 280 278 277 276 274 272 271 269 269 268 267 265 262 262 263 263 261 258 257 258 258 258 259 260 261 261 260 260 260 260
Wind_Speed
11 10 9 8 8 7 7 7 6 6 6 7 8 8 8 8 8 9 10 10 11 11 11 11 12 11 8 8 6 6 6 6 6 6 7 8 9 11 10 8 8 9 9
7 11 10 8 6 8 7 7 6 7 6 7 7 8 8 9 9 8 11 10 11 11 12 12 12 10 12 12 9 10 8 6 5 9 7 8 9 12 10 9 6 8 8
12 10 11 11 6 6 6 7 7 7 8 8 8 7 8 7 8 8 10 10 10 9 10 10 11 11 11 9 10 10 9 7 8 6 7 8 9 10 10 11 7 8 8
14 12 9 9 12 9 7 9 8 9 8 7 6 6 6 5 6 7 8 7 8 7 8 9 9 11 11 11 9 10 9 8 8 7 7 7 8 10 8 9 9 6 8
15 15 14 11 12 11 10 10 9 10 9 7 6 4 5 4 3 6 9 5 6 6 4 6 7 8 13 13 9 11 11 9 8 8 8 8 9 10 11 9 8 7 5
16 15 15 13 12 12 11 11 10 11 11 10 9 8 6 6 6 8 5 8 7 7 7 8 9 12 7 10 11 15 15 12 11 9 9 10 10 11 11 10 8 7 8
17 16 15 13 12 12 11 11 10 10 9 8 8 8 9 8 5 6 12 7 7 7 8 8 8 9 12 9 7 8 14 16 13 11 10 11 11 13 13 12 10 9 4
16 15 14 13 13 12 12 11 11 9 9 8 7 8 9 7 2 5 11 6 7 8 9 9 9 11 12 13 8 7 9 10 11 9 10 10 11 13 14 13 13 11 4
16 15 16 15 14 13 13 12 10 10 8 8 7 8 8 8 1 6 11 5 6 7 8 11 11 11 16 20 9 8 8 9 8 7 7 9 10 15 17 11 11 10 9
16 16 15 14 13 13 12 11 10 9 8 7 6 7 9 8 3 5 10 3 4 4 5 8 14 11 13 15 11 10 9 9 9 9 7 7 9 10 13 11 10 10 10
16 14 14 13 13 12 11 10 9 9 7 6 7 6 5 7 6 5 11 4 2 2 3 4 7 9 11 12 12 9 8 9 9 7 7 7 8 9 8 8 7 8 7
14 15 14 13 11 10 12 10 10 10 9 8 7 6 5 4 6 5 7 7 6 2 3 4 6 7 7 9 9 11 11 9 6 6 7 7 7 7 8 8 7 6 2
16 16 15 14 12 12 12 11 9 10 9 8 7 7 7 6 5 8 6 5 5 3 5 6 4 2 3 2 4 9 9 7 7 6 7 7 7 7 9 8 8 8 8
16 16 14 14 13 12 9 9 9 8 8 8 8 7 6 7 7 7 6 5 5 5 6 3 1 3 4 4 3 5 5 6 5 6 7 7 7 7 7 7 8 7 8
15 14 14 11 12 11 10 9 8 8 4 7 6 6 6 6 6 8 7 6 4 4 2 3 2 2 4 4 4 3 4 5 6 6 6 7 7 7 7 8 7 8 7
14 12 10 10 10 9 9 8 15 8 13 10 8 6 4 1 14 11 8 8 8 6 4 2 2 2 4 4 5 5 4 4 6 7 6 6 7 7 8 8 7 7 8
13 13 10 9 10 10 9 9 9 5 7 7 6 7 9 10 12 12 11 9 8 5 6 2 2 3 4 4 4 5 5 4 5 5 6 6 7 7 8 8 8 8 8
12 8 9 7 7 7 7 7 6 8 8 7 7 8 11 12 13 13 11 13 6 7 7 3 2 3 4 4 4 5 5 5 5 6 6 5 6 7 8 7 8 8 8
8 7 7 6 5 6 6 6 6 7 7 7 7 8 10 12 13 12 8 8 9 8 6 4 2 3 4 4 4 4 4 5 3 5 5 5 6 7 7 7 8 9 9
9 8 8 8 7 8 7 7 7 7 7 7 8 8 9 10 8 9 9 9 9 5 4 3 2 2 3 4 4 3 5 4 4 4 5 5 5 6 7 7 7 8 9
8 9 9 8 8 8 7 7 7 7 7 7 7 7 12 10 9 10 10 9 8 4 4 3 2 1 2 3 4 4 4 4 5 4 5 5 5 6 7 7 7 8 8
8 9 8 7 7 7 7 6 6 6 7 7 6 7 11 8 7 7 7 6 4 4 3 3 2 2 2 3 4 4 4 4 4 4 5 5 6 6 7 7 8 7 8
8 9 9 8 7 7 5 6 5 5 6 6 6 7 7 7 7 4 5 7 6 4 3 3 1 1 2 2 2 3 4 4 4 4 5 6 6 6 7 7 8 8 8
8 8 9 6 5 6 6 5 5 6 6 6 5 6 6 6 4 6 7 5 5 5 4 2 2 2 1 1 3 2 2 4 3 4 4 5 6 7 7 8 8 9 8
6 6 6 7 7 6 6 6 5 5 4 4 5 5 5 5 6 6 6 5 4 4 4 1 1 5 3 1 3 3 7 6 4 6 4 6 8 9 7 7 7 8 8
8 7 6 6 6 6 6 6 6 6 5 5 5 5 5 5 6 6 6 5 4 3 4 4 4 2 3 4 5 4 3 2 4 4 5 6 6 6 6 8 9 7 9
Wind_Direction
150 145 142 138 137 139 131 122 109 104 94 81 74 74 62 52 61 66 55 40 54 39 34 35 25 22 29 10 21 28 14 8 337 3 11 6 10 0 350 6 15 20 27
148 146 143 119 148 134 129 119 105 102 91 86 86 81 69 73 52 56 73 61 49 49 36 36 27 24 19 20 12 8 1 34 4 352 5 3 6 1 349 1 9 16 24
154 147 142 141 91 92 99 128 118 101 76 68 65 80 86 87 83 64 59 65 62 54 47 44 37 28 28 20 19 9 358 2 10 4 6 13 3 4 356 360 22 3 18
155 153 124 162 145 146 155 141 135 129 123 114 117 110 106 97 92 88 78 79 72 62 62 53 49 42 31 15 30 17 356 358 6 14 12 10 13 1 357 354 1 30 21
167 164 161 168 149 154 167 152 143 153 133 142 137 135 137 92 98 98 94 79 111 91 131 104 53 66 58 49 30 25 9 12 14 11 17 12 10 360 359 343 353 349 69
174 164 167 158 157 165 169 161 165 151 160 158 151 136 119 83 43 19 30 98 70 60 68 58 60 31 92 74 67 60 45 19 18 14 21 10 10 359 342 335 349 344 1
174 161 165 159 169 168 169 162 166 162 160 156 149 136 113 97 61 3 343 79 73 68 57 52 52 50 12 12 73 72 68 42 22 16 24 16 6 357 342 338 342 333 23
167 165 164 166 170 170 169 169 165 161 161 155 146 129 110 94 68 330 330 101 87 63 48 46 48 41 25 357 353 30 42 39 30 21 25 15 10 3 349 339 342 341 40
169 163 174 176 168 171 175 169 166 164 159 149 148 137 127 124 130 321 308 123 107 93 83 45 28 41 18 359 4 13 27 33 23 21 21 19 13 20 12 359 4 3 354
171 174 167 169 169 174 172 168 166 163 150 138 135 116 88 122 119 349 344 104 106 103 69 93 57 31 24 16 10 11 14 356 354 348 1 11 9 17 25 27 2 7 355
168 168 169 170 168 170 165 166 168 147 145 112 94 85 63 86 106 45 7 77 83 68 62 70 62 32 31 23 22 20 357 316 329 341 349 7 3 7 9 8 27 6 5
169 170 165 167 168 165 166 162 162 138 124 135 150 161 147 134 137 104 74 63 15 84 76 74 77 33 26 31 20 2 341 338 348 347 354 5 359 358 346 351 348 343 304
168 167 167 167 162 166 169 169 165 157 164 167 174 184 168 179 151 133 119 96 36 76 71 78 75 22 327 9 20 353 350 3 350 352 354 355 349 341 331 349 338 338 324
168 169 167 168 167 170 173 173 173 177 177 176 184 186 173 176 158 164 157 152 138 132 155 161 231 274 258 267 314 10 6 355 343 350 344 342 338 345 340 351 335 339 327
171 170 167 170 178 172 179 179 181 187 184 186 179 187 174 192 170 169 175 181 175 99 189 238 234 341 338 343 342 0 347 355 357 341 340 342 346 344 345 333 335 334 333
171 170 169 170 185 175 181 138 58 92 101 75 83 154 153 103 142 148 144 129 127 151 229 262 311 339 329 329 342 340 340 353 7 325 340 345 346 339 345 322 341 335 337
172 171 164 176 184 182 184 180 164 91 87 120 126 132 164 157 157 162 172 170 171 199 245 227 276 315 316 334 338 336 336 11 300 343 334 349 343 334 325 336 341 341 340
174 157 162 186 176 178 185 177 180 163 183 180 181 185 181 174 180 186 195 184 179 223 259 247 271 304 312 330 335 340 336 334 345 346 325 351 336 327 329 338 338 345 336
143 151 139 160 150 153 166 178 183 163 183 175 161 185 184 189 194 203 202 205 225 225 206 218 222 284 310 326 336 319 325 308 343 306 315 331 339 329 326 331 328 333 318
159 149 159 167 165 177 183 183 186 186 188 179 182 182 179 185 200 209 211 220 238 242 209 217 226 280 323 318 312 296 277 297 310 316 337 317 331 329 317 327 327 326 322
151 159 173 169 172 183 186 190 187 193 200 199 196 184 185 193 205 216 214 213 217 223 182 195 184 222 280 277 281 283 292 314 314 326 307 322 337 307 313 319 320 320 320
150 160 176 172 173 182 188 189 191 195 205 210 202 174 175 201 227 233 231 178 159 132 125 154 208 249 315 318 310 306 292 291 295 308 317 319 305 313 312 321 313 318 318
161 163 173 175 181 167 182 191 184 194 202 201 192 157 184 212 226 218 137 120 123 128 131 148 224 242 192 190 297 310 304 310 355 351 317 311 311 313 323 308 312 313 315
164 161 175 155 173 172 179 196 180 186 194 187 190 177 183 204 153 118 117 130 131 127 127 97 331 22 85 280 235 232 308 1 345 320 311 298 300 303 315 316 308 308 309
145 163 149 152 165 175 159 171 176 178 181 178 192 176 141 133 123 128 128 126 142 143 129 185 197 131 153 138 16 351 52 37 341 3 297 282 294 300 288 284 293 294 302
160 158 149 155 159 154 161 172 170 171 179 172 147 134 136 143 146 141 138 140 165 164 158 174 145 215 152 205 198 133 113 321 299 322 307 289 283 290 301 306 308 302 303